Wind_Speed
29 28 26 23 26 28 32 33 34 28 35 40 42 46 46 47 49 48 45 48 48 46 41 38 37 38 38 40 42 42 43 42 44 44 42 39 40 42 42 41 42 44 44 45
27 24 24 29 30 30 32 34 34 29 36 42 41 43 44 44 46 45 44 45 45 42 34 38 40 41 40 41 43 44 45 47 47 45 42 42 43 44 47 47 48 46 47 47
27 28 31 30 31 32 33 35 34 32 34 39 40 40 38 38 40 43 42 41 40 34 38 39 40 43 45 44 45 47 48 49 48 45 39 35 39 40 42 42 44 47 47 47
30 32 32 33 33 33 33 33 34 34 35 38 41 39 36 38 41 42 41 39 35 36 38 40 41 45 46 47 47 48 49 47 43 37 34 35 37 42 46 44 43 44 45 46
27 31 33 32 31 35 34 34 36 38 39 38 39 41 37 38 40 41 42 41 41 44 41 39 36 36 38 39 40 40 39 40 38 37 36 36 37 41 44 46 48 50 50 51
33 32 31 30 31 35 35 34 36 37 37 39 38 39 41 40 39 41 46 46 47 46 39 36 35 39 41 43 42 42 42 41 38 33 32 33 36 38 39 43 48 52 53 54
27 26 27 29 32 34 34 35 36 38 38 38 35 35 37 36 29 36 38 41 44 46 42 37 36 41 44 44 43 41 41 40 39 38 39 37 39 42 45 47 47 48 53 56
27 28 32 33 33 33 32 34 36 39 39 38 37 39 34 37 34 36 39 40 41 43 42 39 38 40 42 44 44 44 44 45 48 48 48 48 47 47 49 48 48 51 52 54
37 41 40 39 36 34 36 37 39 40 43 43 42 39 38 35 38 38 39 46 45 45 45 43 41 43 45 46 47 47 49 50 53 55 55 54 54 54 54 58 58 55 57 60
14 18 20 25 30 34 36 38 39 41 42 41 39 33 25 27 32 36 36 35 36 38 42 41 40 43 46 46 50 53 53 56 55 53 56 58 60 60 62 65 65 61 62 64
13 13 14 14 16 19 20 23 24 26 29 31 30 28 28 30 30 32 32 33 33 36 33 38 42 42 38 45 53 59 62 63 62 64 60 57 59 63 66 69 65 64 68 75
12 12 14 15 19 18 21 24 27 28 29 31 34 35 37 36 34 35 36 38 39 39 46 47 51 51 55 47 47 48 50 56 57 59 60 65 65 66 65 65 67 69 72 74
15 16 18 20 23 24 26 27 29 32 35 37 39 41 42 40 40 42 44 43 46 46 50 51 51 53 55 47 49 58 52 58 64 64 64 66 68 70 72 74 75 76 76 72
19 20 22 22 25 27 28 29 31 35 39 40 42 41 45 49 50 51 51 51 50 52 52 51 46 51 55 53 56 58 63 65 65 67 70 71 72 72 73 74 75 75 72 70
20 22 23 24 26 29 30 30 34 38 40 44 43 43 44 47 48 47 47 48 48 47 47 54 57 53 52 56 57 59 63 65 67 70 72 75 78 78 77 79 73 69 66 67
18 20 23 23 26 28 29 31 33 35 39 42 43 42 44 44 41 33 32 33 32 34 36 44 52 59 61 55 56 60 60 61 66 72 77 73 71 71 69 68 66 65 66 67
15 19 22 20 24 26 27 29 33 35 36 36 38 37 37 36 32 29 29 27 29 31 32 34 37 39 37 40 46 50 52 56 62 62 60 60 61 61 61 61 64 68 71 70
14 18 21 21 22 27 29 30 30 30 30 31 30 29 29 30 32 31 28 27 32 35 37 35 37 41 44 50 51 50 49 50 50 49 50 52 52 55 61 68 72 72 71 69
19 21 25 25 26 30 30 30 31 32 30 27 27 28 30 31 31 33 37 36 37 38 37 39 43 44 46 46 45 44 42 44 45 44 45 48 55 61 62 61 63 64 63 66
23 25 27 29 32 33 30 27 29 32 29 26 28 30 30 29 28 30 34 35 37 40 42 43 44 45 39 43 45 43 41 40 42 46 51 53 52 45 42 45 44 43 45 46
25 27 30 32 35 37 35 33 27 31 28 28 29 30 31 30 31 30 34 38 41 39 40 43 46 41 43 45 44 41 41 43 46 46 45 42 45 44 41 43 41 39 39 39
26 29 32 34 37 39 37 32 31 30 28 27 27 28 30 33 35 39 41 43 43 42 44 43 38 40 44 43 43 41 41 43 39 37 40 46 49 50 47 48 42 44 44 37
29 32 34 36 38 37 34 31 32 34 28 30 31 33 34 36 38 42 42 37 36 37 34 34 38 40 39 40 41 38 36 36 37 41 43 48 46 46 48 46 45 41 40 39
32 35 36 37 35 35 30 32 33 33 33 35 35 35 36 36 38 36 33 33 28 28 31 37 37 36 34 36 32 34 34 32 32 36 41 42 41 45 45 41 38 42 45 42
34 35 37 36 31 28 28 31 31 31 32 35 37 36 35 34 32 31 26 23 25 28 33 32 33 31 28 25 24 29 31 32 39 40 43 44 44 46 49 47 47 42 37 34
35 37 37 30 30 28 29 29 29 30 33 35 36 33 33 30 25 21 21 23 26 28 28 30 30 23 21 19 23 27 32 36 38 38 42 37 40 41 37 34 31 31 33 32
Wind_Direction
227 226 227 234 231 229 234 237 233 227 237 236 235 240 242 241 243 243 246 248 245 246 248 247 246 250 250 254 256 257 260 263 263 265 268 270 268 268 269 268 266 265 267 269
233 234 233 232 234 234 237 240 241 229 235 240 238 238 243 245 245 247 245 248 252 252 252 248 247 246 247 248 251 254 257 260 263 268 273 273 273 273 271 269 269 266 264 263
233 231 234 236 238 238 238 242 243 240 238 253 254 251 253 258 258 257 255 254 259 260 253 254 253 253 251 251 255 258 259 261 263 267 269 267 262 262 264 265 263 265 265 266
228 232 234 237 242 246 248 250 252 252 250 252 259 262 261 261 265 268 272 271 265 260 260 264 264 260 261 263 261 261 262 264 265 261 258 259 262 265 267 268 268 268 269 268
231 234 236 239 239 246 246 246 248 246 248 250 252 258 259 255 257 264 268 269 270 269 270 269 272 268 266 267 269 269 267 264 262 261 262 262 262 264 272 276 275 272 269 268
231 235 240 242 244 249 251 249 252 256 259 259 259 262 265 262 261 258 261 267 270 272 267 266 267 268 269 270 269 268 267 266 264 261 261 263 266 267 272 271 269 270 272 273
229 229 230 234 241 247 252 256 258 257 257 261 262 263 265 271 262 260 261 262 263 265 268 270 267 266 265 265 267 269 272 275 276 273 268 267 265 266 273 277 276 270 266 268
225 228 234 238 238 246 250 252 256 260 263 265 265 264 266 268 264 262 261 261 262 264 264 264 265 264 262 263 267 268 270 274 277 278 278 277 277 273 274 280 281 275 273 271
237 235 237 241 246 246 248 251 255 260 262 264 263 264 266 264 268 266 262 261 258 261 261 258 261 260 259 261 262 261 264 269 274 276 277 278 279 280 281 283 288 284 281 278
222 235 239 246 248 250 254 257 255 260 265 269 275 279 269 258 254 258 261 261 262 265 267 270 268 263 261 264 268 266 270 274 277 279 281 280 280 278 278 282 282 277 282 284
200 219 235 239 240 245 245 256 259 261 264 273 279 278 275 271 269 270 271 268 263 263 262 273 276 274 270 270 265 266 269 274 273 277 272 272 275 272 274 277 278 279 279 280
232 229 227 246 255 260 262 267 270 269 272 275 278 277 281 280 279 276 272 272 268 262 258 258 259 261 262 263 264 273 278 267 265 266 270 270 272 274 275 277 278 277 278 278
252 253 248 249 258 264 267 268 270 275 277 277 279 283 285 282 277 272 270 269 269 269 267 265 266 265 266 268 272 263 262 265 271 272 274 274 274 274 276 278 280 280 280 279
254 254 255 257 261 263 268 270 273 275 275 278 277 278 279 277 274 273 275 271 269 269 265 264 268 266 264 264 268 270 271 271 273 274 274 276 277 278 280 280 279 279 279 278
259 262 263 262 264 269 273 277 277 278 280 281 282 280 278 276 275 275 274 274 274 270 265 262 263 267 272 269 269 276 280 280 279 278 279 281 281 281 280 280 280 280 278 278
256 261 265 269 272 271 273 274 277 281 281 283 283 282 278 277 278 281 278 275 274 274 272 268 269 271 276 284 280 277 278 278 278 277 280 280 279 280 279 280 280 278 275 275
255 263 269 274 278 285 287 285 286 285 283 281 279 278 275 273 272 277 284 289 284 280 280 281 278 279 279 277 284 286 280 278 276 275 278 278 277 276 277 275 274 275 277 277
271 276 280 285 290 295 296 293 288 285 284 279 278 274 273 278 284 281 275 282 291 286 286 289 289 288 279 286 287 284 281 279 279 279 277 275 277 277 277 278 277 276 275 273
288 289 291 293 291 296 300 299 290 286 284 282 278 273 271 270 277 275 281 275 283 282 283 287 290 290 288 284 282 280 282 281 279 277 280 280 279 280 281 282 281 279 278 276
290 294 295 300 299 299 298 287 276 284 283 278 278 276 280 279 279 276 283 286 289 290 290 291 294 294 290 294 294 294 290 288 284 281 282 283 283 282 290 294 293 290 286 282
288 293 298 298 297 300 296 292 276 284 278 277 278 274 276 271 277 279 284 287 289 288 291 291 294 293 295 295 295 294 294 291 288 289 286 279 282 283 284 287 291 288 293 286
290 292 294 293 294 295 294 286 274 280 278 284 281 281 282 278 275 278 285 289 287 286 286 290 291 294 295 297 296 297 296 297 295 289 283 282 289 284 277 285 279 285 287 286
290 291 292 294 295 294 288 281 274 276 279 284 286 285 282 280 281 283 287 284 284 283 284 289 293 295 298 298 299 306 306 302 297 293 294 292 294 292 291 284 281 280 282 280
289 290 296 295 294 287 280 278 273 275 277 284 285 283 281 278 278 281 285 284 277 282 291 293 297 299 298 299 305 310 314 316 316 311 304 302 290 287 287 284 292 286 278 274
293 298 296 297 286 280 278 276 275 277 279 281 282 282 282 279 282 283 277 271 284 291 291 300 299 302 304 307 313 317 319 323 319 311 304 298 290 297 304 299 293 290 270 271
297 297 297 294 286 282 275 274 272 274 275 278 277 279 281 283 279 264 268 287 291 297 304 301 307 305 310 310 315 316 320 325 325 330 318 317 313 311 308 306 299 293 267 263
Height
5752 5756 5762 5767 5768 5770 5771 5774 5777 5784 5782 5784 5787 5788 5792 5793 5794 5798 5800 5800 5800 5801 5804 5809 5811 5810 5810 5811 5811 5812 5812 5812 5812 5813 5815 5818 5818 5817 5817 5817 5817 5816 5815 5813
5749 5754 5758 5758 5761 5764 5767 5768 5772 5778 5776 5776 5780 5783 5783 5787 5788 5790 5793 5794 5796 5798 5801 5800 5801 5802 5803 5804 5804 5804 5804 5803 5804 5806 5809 5810 5807 5805 5804 5804 5803 5804 5803 5803
5745 5749 5749 5753 5755 5759 5761 5762 5767 5772 5774 5772 5774 5777 5781 5783 5785 5784 5786 5788 5791 5793 5789 5789 5793 5794 5794 5795 5795 5795 5796 5797 5798 5800 5800 5798 5797 5795 5792 5792 5792 5791 5791 5790
5738 5739 5743 5746 5749 5752 5755 5759 5761 5763 5767 5768 5767 5770 5775 5777 5775 5777 5779 5779 5781 5782 5782 5783 5784 5785 5786 5787 5786 5785 5786 5788 5789 5789 5789 5788 5787 5784 5781 5781 5782 5781 5780 5780
5734 5735 5738 5741 5744 5745 5749 5750 5752 5754 5756 5759 5761 5760 5766 5768 5769 5769 5768 5768 5769 5770 5772 5773 5774 5775 5775 5775 5777 5778 5778 5778 5779 5779 5779 5779 5778 5775 5772 5771 5771 5770 5769 5770
5726 5730 5733 5736 5738 5738 5741 5745 5746 5748 5750 5752 5754 5756 5757 5759 5761 5761 5759 5759 5759 5759 5760 5762 5763 5764 5764 5765 5766 5767 5767 5767 5767 5768 5768 5769 5768 5766 5765 5762 5760 5760 5759 5757
5721 5724 5727 5728 5730 5731 5734 5736 5739 5741 5741 5743 5746 5747 5747 5747 5750 5749 5750 5751 5749 5749 5750 5753 5754 5754 5754 5754 5754 5754 5754 5755 5755 5757 5758 5758 5758 5755 5751 5749 5749 5748 5747 5745
5715 5718 5718 5720 5723 5724 5727 5730 5732 5731 5732 5735 5736 5735 5740 5737 5739 5739 5738 5738 5738 5738 5739 5741 5743 5744 5744 5744 5743 5743 5744 5744 5744 5744 5743 5742 5742 5742 5741 5738 5736 5735 5733 5731
5708 5710 5712 5714 5718 5721 5721 5722 5723 5724 5723 5724 5727 5729 5729 5728 5726 5726 5726 5725 5726 5725 5726 5729 5731 5731 5731 5731 5731 5731 5732 5731 5731 5730 5729 5728 5726 5724 5723 5721 5721 5720 5717 5714
5704 5705 5707 5709 5711 5712 5712 5714 5714 5713 5713 5713 5713 5715 5718 5718 5717 5715 5714 5715 5715 5715 5714 5714 5716 5717 5718 5719 5719 5718 5717 5717 5718 5719 5717 5714 5712 5710 5709 5707 5705 5703 5702 5701
5699 5700 5702 5702 5703 5703 5706 5705 5706 5708 5707 5705 5706 5708 5709 5709 5710 5709 5708 5708 5707 5706 5704 5702 5704 5704 5705 5705 5706 5707 5706 5707 5707 5703 5703 5699 5697 5693 5692 5690 5690 5689 5687 5686
5696 5698 5699 5699 5698 5699 5700 5700 5699 5699 5701 5699 5699 5700 5698 5699 5701 5701 5699 5698 5698 5698 5696 5696 5694 5696 5694 5694 5693 5693 5693 5691 5689 5687 5683 5682 5680 5679 5678 5677 5674 5672 5671 5668
5692 5693 5694 5694 5695 5694 5694 5694 5694 5693 5692 5691 5691 5691 5688 5690 5688 5688 5687 5688 5686 5684 5683 5684 5683 5683 5682 5682 5680 5679 5675 5674 5671 5669 5667 5666 5665 5663 5661 5659 5655 5652 5649 5648
5686 5687 5688 5690 5688 5688 5688 5688 5688 5686 5684 5683 5683 5684 5680 5674 5674 5674 5675 5674 5674 5672 5669 5668 5669 5669 5667 5666 5664 5663 5661 5658 5656 5654 5651 5649 5646 5644 5641 5639 5636 5632 5629 5627
5681 5681 5682 5683 5683 5682 5683 5683 5679 5677 5676 5672 5673 5672 5669 5663 5661 5661 5660 5659 5658 5658 5658 5657 5655 5654 5653 5651 5650 5647 5645 5642 5638 5636 5633 5631 5627 5624 5621 5619 5616 5613 5610 5607
5676 5676 5675 5676 5676 5675 5675 5673 5672 5670 5666 5663 5658 5659 5653 5651 5649 5649 5647 5646 5646 5645 5644 5644 5643 5642 5640 5638 5638 5635 5632 5628 5625 5622 5619 5614 5610 5607 5604 5601 5597 5593 5591 5588
5671 5670 5669 5670 5667 5667 5667 5665 5662 5659 5655 5652 5648 5646 5642 5640 5639 5639 5638 5637 5635 5634 5634 5634 5632 5630 5628 5627 5624 5621 5616 5612 5608 5605 5602 5598 5594 5590 5587 5584 5580 5577 5573 5569
5664 5663 5662 5661 5659 5657 5655 5653 5651 5648 5645 5642 5640 5638 5636 5634 5633 5632 5630 5630 5628 5626 5625 5624 5622 5620 5618 5614 5609 5604 5599 5597 5594 5591 5587 5582 5579 5575 5570 5565 5560 5555 5551 5548
5656 5655 5653 5652 5652 5650 5645 5641 5639 5637 5636 5634 5632 5631 5630 5628 5628 5626 5623 5622 5620 5618 5617 5614 5612 5609 5604 5599 5594 5590 5588 5583 5579 5575 5571 5568 5564 5558 5551 5544 5536 5530 5526 5525
5648 5647 5645 5643 5641 5639 5639 5635 5631 5627 5627 5626 5625 5624 5622 5621 5620 5618 5614 5612 5610 5607 5605 5602 5599 5595 5591 5587 5582 5578 5574 5569 5565 5561 5557 5552 5546 5540 5535 5528 5520 5514 5509 5506
5642 5640 5637 5634 5632 5630 5626 5624 5622 5621 5622 5618 5617 5616 5615 5613 5611 5610 5607 5605 5601 5599 5596 5591 5588 5585 5581 5576 5570 5566 5562 5557 5552 5547 5541 5535 5531 5526 5520 5515 5509 5503 5497 5493
5635 5633 5631 5628 5624 5621 5618 5615 5614 5612 5611 5610 5609 5609 5608 5605 5603 5601 5598 5595 5591 5589 5586 5582 5579 5576 5572 5565 5558 5555 5550 5544 5539 5534 5528 5523 5517 5511 5505 5499 5495 5490 5485 5481
5629 5626 5623 5620 5616 5611 5607 5605 5603 5603 5602 5601 5601 5600 5598 5596 5593 5591 5588 5585 5582 5578 5577 5575 5571 5567 5562 5554 5547 5543 5538 5533 5528 5522 5516 5510 5504 5497 5491 5484 5480 5475 5471 5468
5619 5615 5613 5609 5607 5601 5599 5597 5595 5594 5594 5594 5593 5590 5588 5586 5583 5581 5579 5576 5573 5572 5570 5566 5561 5557 5552 5545 5540 5535 5530 5524 5518 5512 5505 5497 5491 5484 5475 5468 5463 5460 5456 5454
5610 5608 5602 5599 5594 5592 5591 5588 5587 5587 5586 5585 5582 5580 5578 5575 5574 5572 5570 5569 5568 5566 5563 5558 5552 5548 5543 5539 5534 5529 5523 5517 5510 5503 5493 5484 5477 5470 5461 5454 5447 5441 5440 5440
5603 5598 5592 5588 5584 5584 5581 5580 5579 5579 5577 5574 5571 5570 5568 5566 5566 5564 5564 5563 5561 5558 5554 5550 5545 5540 5537 5534 5529 5524 5517 5509 5502 5492 5484 5474 5465 5456 5448 5441 5434 5429 5427 5428